{"data":{"norad_id":23467,"epoch":"2026-09-19T15:14:56.274720Z","epoch_age_seconds":85959,"freshness":"FRESH","line1":"1 23467U 95003A   26262.63537355 -.00000021  00000+0  00000+0 0  9996","line2":"2 23467   9.7028  12.7651 0003008 165.3124 221.5410  1.00269973115903","mean_motion":1.00269973,"eccentricity":0.0003008,"inclination_deg":9.7028,"raan_deg":12.7651,"arg_perigee_deg":165.3124,"mean_anomaly_deg":221.541,"bstar":0,"rev_number":11590,"period_min":1436.1228560419,"perigee_km":35774.419634044,"apogee_km":35799.786242391,"semimajor_km":42165.239938218,"source":"CELESTRAK","updated_at":"2026-09-20T09:00:35.115385Z"}}